| time (UTC) | temp C | wind direction | speed KPH | gust KPH | rain 1hr cm | rain 24hr cm | rain mn cm | humidity % | barometer mb |
| 20260510132150 | 18 | 332 | 1.6 | 1.6 | 0.00 | 0.00 | 0.00 | 79 | 1063.7 |
| 20260510131648 | 17 | 325 | 4.8 | 4.8 | 0.00 | 0.00 | 0.00 | 80 | 1063.6 |
| 20260510131145 | 17 | 327 | 3.2 | 4.8 | 0.00 | 0.00 | 0.00 | 82 | 1063.7 |
| 20260510130641 | 17 | 321 | 4.8 | 4.8 | 0.00 | 0.00 | 0.00 | 83 | 1063.5 |
| 20260510130139 | 17 | 327 | 3.2 | 4.8 | 0.00 | 0.00 | 0.00 | 84 | 1063.3 |
| 20260510125635 | 16 | 12 | 6.4 | 8.0 | 0.00 | 0.00 | 0.00 | 85 | 1063.2 |
| 20260510125131 | 17 | 325 | 1.6 | 3.2 | 0.00 | 0.00 | 0.00 | 86 | 1063.2 |
| 20260510124628 | 17 | 322 | 1.6 | 1.6 | 0.00 | 0.00 | 0.00 | 87 | 1063.0 |
| 20260510124125 | 17 | 335 | 0.0 | 1.6 | 0.00 | 0.00 | 0.00 | 85 | 1063.0 |
| 20260510123620 | 17 | 336 | 1.6 | 1.6 | 0.00 | 0.00 | 0.00 | 83 | 1062.8 |
| 20260510123117 | 17 | 352 | 1.6 | 1.6 | 0.00 | 0.00 | 0.00 | 81 | 1062.8 |
| 20260510122613 | 17 | 112 | 0.0 | 0.0 | 0.00 | 0.00 | 0.00 | 82 | 1062.8 |
| 20260510122108 | 17 | 114 | 0.0 | 0.0 | 0.00 | 0.00 | 0.00 | 83 | 1062.6 |
| 20260510121606 | 17 | 115 | 1.6 | 3.2 | 0.00 | 0.00 | 0.00 | 82 | 1062.7 |
| 20260510121103 | 16 | 112 | 1.6 | 1.6 | 0.00 | 0.00 | 0.00 | 85 | 1062.5 |
| 20260510120601 | 16 | 111 | 1.6 | 1.6 | 0.00 | 0.00 | 0.00 | 86 | 1062.6 |
| 20260510120056 | 16 | 110 | 1.6 | 1.6 | 0.00 | 0.00 | 0.00 | 86 | 1062.7 |
| 20260510115553 | 16 | 110 | 0.0 | 0.0 | 0.00 | 0.00 | 0.00 | 85 | 1062.6 |
| 20260510115051 | 16 | 111 | 1.6 | 1.6 | 0.00 | 0.00 | 0.00 | 85 | 1062.6 |
| 20260510114546 | 16 | 110 | 0.0 | 1.6 | 0.00 | 0.00 | 0.00 | 83 | 1062.6 |
| 20260510114042 | 16 | 121 | 1.6 | 1.6 | 0.00 | 0.00 | 0.00 | 81 | 1062.5 |
| 20260510113537 | 16 | 103 | 0.0 | 0.0 | 0.00 | 0.00 | 0.00 | 80 | 1062.6 |
| 20260510113036 | 17 | 142 | 3.2 | 3.2 | 0.00 | 0.00 | 0.00 | 78 | 1062.7 |
| 20260510112532 | 17 | 60 | 0.0 | 0.0 | 0.00 | 0.00 | 0.00 | 78 | 1062.3 |
| 20260510112028 | 18 | 345 | 0.0 | 0.0 | 0.00 | 0.00 | 0.00 | 77 | 1062.4 |
| 20260510111525 | 18 | 310 | 0.0 | 0.0 | 0.00 | 0.00 | 0.00 | 77 | 1062.3 |
| 20260510111021 | 18 | 274 | 0.0 | 0.0 | 0.00 | 0.00 | 0.00 | 77 | 1062.2 |
| 20260510110517 | 18 | 335 | 1.6 | 1.6 | 0.00 | 0.00 | 0.00 | 76 | 1062.2 |
| 20260510110014 | 18 | 351 | 1.6 | 1.6 | 0.00 | 0.00 | 0.00 | 75 | 1062.0 |
| 20260510105509 | 18 | 2 | 1.6 | 1.6 | 0.00 | 0.00 | 0.00 | 74 | 1062.3 |
| 20260510105004 | 18 | 350 | 0.0 | 0.0 | 0.00 | 0.00 | 0.00 | 73 | 1062.2 |
| 20260510104501 | 17 | 354 | 0.0 | 0.0 | 0.00 | 0.00 | 0.00 | 74 | 1062.2 |
| 20260510103957 | 17 | 357 | 3.2 | 4.8 | 0.00 | 0.00 | 0.00 | 74 | 1062.2 |
| 20260510103454 | 17 | 339 | 4.8 | 4.8 | 0.00 | 0.00 | 0.00 | 75 | 1061.8 |
| 20260510102950 | 17 | 336 | 1.6 | 3.2 | 0.00 | 0.00 | 0.00 | 74 | 1062.1 |
| 20260510102446 | 17 | 329 | 4.8 | 4.8 | 0.00 | 0.00 | 0.00 | 76 | 1062.0 |
| 20260510101943 | 17 | 346 | 3.2 | 3.2 | 0.00 | 0.00 | 0.00 | 77 | 1062.0 |
| 20260510101441 | 17 | 323 | 3.2 | 3.2 | 0.00 | 0.00 | 0.00 | 75 | 1061.8 |
| 20260510100939 | 17 | 331 | 4.8 | 4.8 | 0.00 | 0.00 | 0.00 | 74 | 1061.8 |
| 20260510100435 | 17 | 333 | 4.8 | 4.8 | 0.00 | 0.00 | 0.00 | 73 | 1062.0 |
| 20260510095931 | 17 | 349 | 4.8 | 4.8 | 0.00 | 0.00 | 0.00 | 72 | 1061.8 |
| 20260510095427 | 17 | 323 | 4.8 | 8.0 | 0.00 | 0.00 | 0.00 | 72 | 1061.6 |
| 20260510094926 | 17 | 334 | 4.8 | 4.8 | 0.00 | 0.00 | 0.00 | 73 | 1061.5 |
| 20260510094421 | 17 | 338 | 4.8 | 4.8 | 0.00 | 0.00 | 0.00 | 72 | 1061.5 |
| 20260510093917 | 17 | 341 | 3.2 | 3.2 | 0.00 | 0.00 | 0.00 | 72 | 1061.3 |
| 20260510093413 | 17 | 355 | 3.2 | 3.2 | 0.00 | 0.00 | 0.00 | 72 | 1061.1 |
| 20260510092909 | 17 | 359 | 1.6 | 1.6 | 0.00 | 0.00 | 0.00 | 72 | 1061.1 |
| 20260510092407 | 17 | 354 | 1.6 | 1.6 | 0.00 | 0.00 | 0.00 | 71 | 1061.2 |
| 20260510091907 | 17 | 349 | 1.6 | 1.6 | 0.00 | 0.00 | 0.00 | 71 | 1061.1 |
| 20260510091404 | 18 | 354 | 0.0 | 1.6 | 0.00 | 0.00 | 0.00 | 71 | 1060.7 |
| 20260510090901 | 17 | 351 | 1.6 | 1.6 | 0.00 | 0.00 | 0.00 | 71 | 1061.1 |
| 20260510090357 | 17 | 357 | 1.6 | 1.6 | 0.00 | 0.00 | 0.00 | 71 | 1060.9 |
| 20260510085853 | 17 | 334 | 3.2 | 3.2 | 0.00 | 0.00 | 0.00 | 70 | 1061.0 |
| 20260510085348 | 17 | 338 | 4.8 | 4.8 | 0.00 | 0.00 | 0.00 | 71 | 1061.1 |
| 20260510084844 | 17 | 49 | 3.2 | 3.2 | 0.00 | 0.00 | 0.00 | 71 | 1061.1 |
| 20260510084341 | 17 | 12 | 6.4 | 9.7 | 0.00 | 0.00 | 0.00 | 71 | 1061.4 |
| 20260510083838 | 17 | 352 | 8.0 | 8.0 | 0.00 | 0.00 | 0.00 | 72 | 1061.3 |
| 20260510083334 | 17 | 342 | 3.2 | 3.2 | 0.00 | 0.00 | 0.00 | 72 | 1060.8 |
| 20260510082830 | 17 | 347 | 1.6 | 1.6 | 0.00 | 0.00 | 0.00 | 72 | 1060.8 |
| 20260510082327 | 17 | 328 | 0.0 | 0.0 | 0.00 | 0.00 | 0.00 | 72 | 1060.9 |
| 20260510081826 | 17 | 323 | 0.0 | 0.0 | 0.00 | 0.00 | 0.00 | 72 | 1060.6 |
| 20260510081322 | 17 | 321 | 0.0 | 0.0 | 0.00 | 0.00 | 0.00 | 72 | 1060.6 |
| 20260510080819 | 17 | 285 | 0.0 | 0.0 | 0.00 | 0.00 | 0.00 | 70 | 1060.6 |
| 20260510080313 | 17 | 288 | 0.0 | 1.6 | 0.00 | 0.00 | 0.00 | 70 | 1060.5 |
| 20260510075811 | 17 | 331 | 0.0 | 1.6 | 0.00 | 0.00 | 0.00 | 70 | 1060.4 |
| 20260510075308 | 17 | 330 | 1.6 | 1.6 | 0.00 | 0.00 | 0.00 | 70 | 1060.5 |
| 20260510074805 | 17 | 262 | 1.6 | 3.2 | 0.00 | 0.00 | 0.00 | 70 | 1060.5 |
| 20260510074302 | 17 | 341 | 0.0 | 0.0 | 0.00 | 0.00 | 0.00 | 69 | 1060.7 |
| 20260510073758 | 17 | 342 | 0.0 | 0.0 | 0.00 | 0.00 | 0.00 | 69 | 1060.6 |
| 20260510073254 | 17 | 328 | 0.0 | 0.0 | 0.00 | 0.00 | 0.00 | 69 | 1060.7 |
| 20260510072749 | 17 | 273 | 1.6 | 1.6 | 0.00 | 0.00 | 0.00 | 69 | 1060.6 |
| 20260510072247 | 17 | 278 | 1.6 | 1.6 | 0.00 | 0.00 | 0.00 | 70 | 1060.6 |
| 20260510071743 | 17 | 272 | 1.6 | 1.6 | 0.00 | 0.00 | 0.00 | 69 | 1060.5 |
| 20260510071239 | 17 | 301 | 1.6 | 3.2 | 0.00 | 0.00 | 0.00 | 70 | 1060.5 |
| 20260510070738 | 17 | 317 | 0.0 | 0.0 | 0.00 | 0.00 | 0.00 | 72 | 1060.5 |
| 20260510070235 | 17 | 233 | 0.0 | 0.0 | 0.00 | 0.00 | 0.00 | 75 | 1060.5 |
| 20260510065729 | 17 | 233 | 0.0 | 0.0 | 0.00 | 0.00 | 0.00 | 74 | 1060.5 |
| 20260510065226 | 17 | 233 | 0.0 | 0.0 | 0.00 | 0.00 | 0.00 | 72 | 1060.7 |
| 20260510064723 | 17 | 233 | 0.0 | 0.0 | 0.00 | 0.00 | 0.00 | 69 | 1060.7 |
| 20260510064221 | 18 | 253 | 0.0 | 0.0 | 0.00 | 0.00 | 0.00 | 65 | 1060.7 |
| 20260510063717 | 18 | 291 | 0.0 | 0.0 | 0.00 | 0.00 | 0.00 | 63 | 1060.7 |
| 20260510063213 | 18 | 276 | 0.0 | 1.6 | 0.00 | 0.00 | 0.00 | 63 | 1060.9 |
| 20260510062710 | 18 | 303 | 0.0 | 1.6 | 0.00 | 0.00 | 0.00 | 62 | 1061.1 |
| 20260510062206 | 18 | 251 | 0.0 | 0.0 | 0.00 | 0.00 | 0.00 | 62 | 1060.9 |
| 20260510061701 | 18 | 309 | 0.0 | 1.6 | 0.00 | 0.00 | 0.00 | 66 | 1060.9 |
| 20260510061158 | 18 | 313 | 0.0 | 1.6 | 0.00 | 0.00 | 0.00 | 66 | 1060.7 |
| 20260510060655 | 18 | 322 | 1.6 | 1.6 | 0.00 | 0.00 | 0.00 | 65 | 1060.9 |
| 20260510060151 | 18 | 309 | 1.6 | 1.6 | 0.00 | 0.00 | 0.00 | 64 | 1060.8 |
| 20260510055648 | 18 | 315 | 1.6 | 1.6 | 0.00 | 0.00 | 0.00 | 64 | 1060.9 |
| 20260510055146 | 18 | 284 | 1.6 | 1.6 | 0.00 | 0.00 | 0.00 | 63 | 1060.9 |
| 20260510054641 | 18 | 292 | 1.6 | 1.6 | 0.00 | 0.00 | 0.00 | 65 | 1060.8 |
| 20260510054137 | 18 | 332 | 0.0 | 0.0 | 0.00 | 0.00 | 0.00 | 62 | 1060.9 |
| 20260510053636 | 19 | 325 | 0.0 | 0.0 | 0.00 | 0.00 | 0.00 | 61 | 1060.7 |
| 20260510053133 | 19 | 306 | 0.0 | 0.0 | 0.00 | 0.00 | 0.00 | 59 | 1060.8 |
| 20260510052629 | 20 | 284 | 0.0 | 0.0 | 0.00 | 0.00 | 0.00 | 57 | 1060.7 |
| 20260510052126 | 19 | 323 | 0.0 | 0.0 | 0.00 | 0.00 | 0.00 | 56 | 1060.8 |
| 20260510051621 | 19 | 264 | 0.0 | 0.0 | 0.00 | 0.00 | 0.00 | 55 | 1060.6 |
| 20260510051118 | 20 | 236 | 0.0 | 1.6 | 0.00 | 0.00 | 0.00 | 53 | 1060.6 |
| 20260510050615 | 20 | 245 | 0.0 | 0.0 | 0.00 | 0.00 | 0.00 | 50 | 1060.8 |
| 20260510050112 | 20 | 294 | 0.0 | 0.0 | 0.00 | 0.00 | 0.00 | 51 | 1060.7 |
| 20260510045604 | 20 | 124 | 0.0 | 0.0 | 0.00 | 0.00 | 0.00 | 52 | 1060.8 |
| 20260510045059 | 20 | 124 | 0.0 | 0.0 | 0.00 | 0.00 | 0.00 | 50 | 1060.5 |
| 20260510044556 | 20 | 123 | 0.0 | 0.0 | 0.00 | 0.00 | 0.00 | 49 | 1060.5 |
| 20260510044054 | 20 | 339 | 0.0 | 0.0 | 0.00 | 0.00 | 0.00 | 48 | 1060.5 |
| 20260510043548 | 21 | 280 | 0.0 | 1.6 | 0.00 | 0.00 | 0.00 | 49 | 1060.4 |
| 20260510043045 | 21 | 264 | 0.0 | 0.0 | 0.00 | 0.00 | 0.00 | 48 | 1060.4 |
| 20260510042539 | 21 | 261 | 0.0 | 1.6 | 0.00 | 0.00 | 0.00 | 49 | 1060.6 |
| 20260510042034 | 21 | 280 | 0.0 | 0.0 | 0.00 | 0.00 | 0.00 | 47 | 1060.5 |
| 20260510041531 | 21 | 288 | 0.0 | 1.6 | 0.00 | 0.00 | 0.00 | 47 | 1060.6 |
| 20260510041028 | 20 | 248 | 0.0 | 1.6 | 0.00 | 0.00 | 0.00 | 50 | 1060.3 |
| 20260510040520 | 21 | 198 | 0.0 | 0.0 | 0.00 | 0.00 | 0.00 | 49 | 1060.4 |
| 20260510040015 | 21 | 136 | 0.0 | 1.6 | 0.00 | 0.00 | 0.00 | 48 | 1060.2 |
| 20260510035512 | 22 | 184 | 3.2 | 3.2 | 0.00 | 0.00 | 0.00 | 45 | 1060.3 |
| 20260510035011 | 22 | 178 | 3.2 | 8.0 | 0.00 | 0.00 | 0.00 | 46 | 1060.1 |
| 20260510034510 | 22 | 167 | 3.2 | 3.2 | 0.00 | 0.00 | 0.00 | 45 | 1060.1 |
| 20260510034006 | 21 | 152 | 1.6 | 1.6 | 0.00 | 0.00 | 0.00 | 46 | 1059.9 |
| 20260510033502 | 22 | 156 | 0.0 | 0.0 | 0.00 | 0.00 | 0.00 | 46 | 1060.1 |
| 20260510032959 | 22 | 164 | 3.2 | 4.8 | 0.00 | 0.00 | 0.00 | 45 | 1059.9 |
| 20260510032456 | 22 | 159 | 3.2 | 3.2 | 0.00 | 0.00 | 0.00 | 46 | 1059.8 |
| 20260510031951 | 22 | 153 | 1.6 | 1.6 | 0.00 | 0.00 | 0.00 | 46 | 1059.9 |
| 20260510031447 | 22 | 156 | 1.6 | 1.6 | 0.00 | 0.00 | 0.00 | 45 | 1059.8 |
| 20260510030943 | 22 | 151 | 1.6 | 1.6 | 0.00 | 0.00 | 0.00 | 46 | 1059.8 |
| 20260510030438 | 22 | 137 | 1.6 | 1.6 | 0.00 | 0.00 | 0.00 | 45 | 1059.8 |
| 20260510025936 | 22 | 173 | 1.6 | 3.2 | 0.00 | 0.00 | 0.00 | 45 | 1059.7 |
| 20260510025433 | 22 | 122 | 0.0 | 0.0 | 0.00 | 0.00 | 0.00 | 49 | 1059.6 |
| 20260510024931 | 22 | 122 | 0.0 | 0.0 | 0.00 | 0.00 | 0.00 | 48 | 1059.4 |
| 20260510024427 | 22 | 107 | 0.0 | 0.0 | 0.00 | 0.00 | 0.00 | 48 | 1059.3 |
| 20260510023923 | 22 | 107 | 0.0 | 0.0 | 0.00 | 0.00 | 0.00 | 48 | 1059.2 |
| 20260510023419 | 22 | 132 | 1.6 | 1.6 | 0.00 | 0.00 | 0.00 | 46 | 1059.3 |
| 20260510022917 | 22 | 124 | 3.2 | 3.2 | 0.00 | 0.00 | 0.00 | 45 | 1059.0 |
| 20260510022415 | 22 | 146 | 1.6 | 3.2 | 0.00 | 0.00 | 0.00 | 45 | 1058.7 |
| 20260510021915 | 22 | 102 | 0.0 | 0.0 | 0.00 | 0.00 | 0.00 | 48 | 1058.9 |
| 20260510021413 | 22 | 136 | 1.6 | 1.6 | 0.00 | 0.00 | 0.00 | 47 | 1058.7 |
| 20260510020909 | 23 | 140 | 1.6 | 1.6 | 0.00 | 0.00 | 0.00 | 46 | 1058.4 |
| 20260510020404 | 22 | 128 | 1.6 | 1.6 | 0.00 | 0.00 | 0.00 | 47 | 1058.3 |
| 20260510015900 | 22 | 109 | 0.0 | 0.0 | 0.00 | 0.00 | 0.00 | 47 | 1058.4 |
| 20260510015356 | 23 | 122 | 0.0 | 0.0 | 0.00 | 0.00 | 0.00 | 46 | 1058.3 |
| 20260510014851 | 22 | 124 | 1.6 | 1.6 | 0.00 | 0.00 | 0.00 | 45 | 1058.3 |
| 20260510014349 | 22 | 103 | 0.0 | 0.0 | 0.00 | 0.00 | 0.00 | 46 | 1058.2 |
| 20260510013845 | 23 | 90 | 0.0 | 0.0 | 0.00 | 0.00 | 0.00 | 47 | 1058.0 |
| 20260510013341 | 23 | 121 | 0.0 | 1.6 | 0.00 | 0.00 | 0.00 | 46 | 1058.0 |
| 20260510012836 | 23 | 92 | 0.0 | 1.6 | 0.00 | 0.00 | 0.00 | 46 | 1057.9 |
| 20260510012335 | 23 | 85 | 0.0 | 0.0 | 0.00 | 0.00 | 0.00 | 46 | 1057.8 |
| 20260510011831 | 23 | 85 | 0.0 | 0.0 | 0.00 | 0.00 | 0.00 | 48 | 1057.8 |
| 20260510011326 | 23 | 85 | 0.0 | 0.0 | 0.00 | 0.00 | 0.00 | 47 | 1057.6 |
| 20260510010823 | 23 | 84 | 0.0 | 0.0 | 0.00 | 0.00 | 0.00 | 46 | 1057.7 |
| 20260510010320 | 23 | 99 | 0.0 | 0.0 | 0.00 | 0.00 | 0.00 | 47 | 1057.7 |
| 20260510005817 | 24 | 166 | 3.2 | 3.2 | 0.00 | 0.00 | 0.00 | 43 | 1057.6 |
| 20260510005313 | 24 | 174 | 4.8 | 4.8 | 0.00 | 0.00 | 0.00 | 43 | 1057.7 |
| 20260510004811 | 24 | 161 | 1.6 | 3.2 | 0.00 | 0.00 | 0.00 | 43 | 1057.6 |
| 20260510004308 | 24 | 151 | 1.6 | 1.6 | 0.00 | 0.00 | 0.00 | 44 | 1057.6 |
| 20260510003806 | 24 | 147 | 1.6 | 3.2 | 0.00 | 0.00 | 0.00 | 43 | 1057.6 |
| 20260510003303 | 24 | 176 | 4.8 | 4.8 | 0.00 | 0.00 | 0.00 | 42 | 1057.6 |
| 20260510002801 | 25 | 152 | 3.2 | 3.2 | 0.00 | 0.00 | 0.00 | 42 | 1057.5 |
| 20260510002259 | 25 | 177 | 4.8 | 4.8 | 0.00 | 0.00 | 0.00 | 41 | 1057.4 |
| 20260510001755 | 25 | 171 | 3.2 | 3.2 | 0.00 | 0.00 | 0.00 | 40 | 1057.5 |
| 20260510001254 | 26 | 194 | 3.2 | 3.2 | 0.00 | 0.00 | 0.00 | 37 | 1057.4 |
| 20260510000749 | 26 | 309 | 0.0 | 0.0 | 0.00 | 0.00 | 0.00 | 36 | 1057.4 |
| 20260510000248 | 26 | 309 | 0.0 | 0.0 | 0.00 | 0.00 | 0.00 | 38 | 1057.4 |
| 20260509235744 | 27 | 323 | 0.0 | 0.0 | 0.00 | 0.00 | 0.00 | 38 | 1057.4 |
| 20260509235240 | 27 | 328 | 0.0 | 0.0 | 0.00 | 0.00 | 0.00 | 37 | 1057.5 |
| 20260509234736 | 27 | 328 | 0.0 | 0.0 | 0.00 | 0.00 | 0.00 | 36 | 1057.4 |
| 20260509234233 | 27 | 326 | 0.0 | 0.0 | 0.00 | 0.00 | 0.00 | 35 | 1057.3 |
| 20260509233731 | 27 | 251 | 0.0 | 0.0 | 0.00 | 0.00 | 0.00 | 35 | 1057.2 |
| 20260509233228 | 27 | 303 | 0.0 | 1.6 | 0.00 | 0.00 | 0.00 | 34 | 1057.5 |
| 20260509232724 | 27 | 301 | 3.2 | 3.2 | 0.00 | 0.00 | 0.00 | 35 | 1057.5 |
| 20260509232222 | 27 | 337 | 1.6 | 1.6 | 0.00 | 0.00 | 0.00 | 36 | 1057.5 |
| 20260509231718 | 27 | 336 | 0.0 | 0.0 | 0.00 | 0.00 | 0.00 | 37 | 1057.6 |
| 20260509231215 | 27 | 192 | 1.6 | 1.6 | 0.00 | 0.00 | 0.00 | 37 | 1057.6 |
| 20260509230712 | 27 | 329 | 0.0 | 1.6 | 0.00 | 0.00 | 0.00 | 35 | 1057.5 |
| 20260509230203 | 27 | 291 | 4.8 | 8.0 | 0.00 | 0.00 | 0.00 | 36 | 1057.4 |
| 20260509225659 | 27 | 251 | 1.6 | 1.6 | 0.00 | 0.00 | 0.00 | 36 | 1057.6 |
| 20260509225154 | 27 | 315 | 0.0 | 1.6 | 0.00 | 0.00 | 0.00 | 36 | 1057.6 |
| 20260509224651 | 27 | 344 | 1.6 | 1.6 | 0.00 | 0.00 | 0.00 | 35 | 1057.4 |
| 20260509224148 | 27 | 286 | 4.8 | 4.8 | 0.00 | 0.00 | 0.00 | 37 | 1057.5 |
| 20260509223644 | 27 | 229 | 1.6 | 3.2 | 0.00 | 0.00 | 0.00 | 35 | 1057.2 |
| 20260509223141 | 27 | 271 | 1.6 | 1.6 | 0.00 | 0.00 | 0.00 | 35 | 1057.4 |
| 20260509222638 | 26 | 244 | 3.2 | 4.8 | 0.00 | 0.00 | 0.00 | 36 | 1057.3 |
| 20260509222133 | 27 | 237 | 3.2 | 3.2 | 0.00 | 0.00 | 0.00 | 35 | 1057.4 |
| 20260509221630 | 27 | 183 | 3.2 | 3.2 | 0.00 | 0.00 | 0.00 | 35 | 1057.4 |
| 20260509221126 | 27 | 295 | 3.2 | 4.8 | 0.00 | 0.00 | 0.00 | 34 | 1057.3 |
| 20260509220622 | 27 | 335 | 1.6 | 1.6 | 0.00 | 0.00 | 0.00 | 33 | 1057.4 |
| 20260509220119 | 27 | 253 | 3.2 | 3.2 | 0.00 | 0.00 | 0.00 | 32 | 1057.5 |
| 20260509215614 | 27 | 265 | 8.0 | 9.7 | 0.00 | 0.00 | 0.00 | 31 | 1057.5 |
| 20260509215112 | 27 | 84 | 0.0 | 0.0 | 0.00 | 0.00 | 0.00 | 36 | 1057.4 |
| 20260509214609 | 27 | 313 | 1.6 | 1.6 | 0.00 | 0.00 | 0.00 | 34 | 1057.6 |
| 20260509214105 | 27 | 310 | 3.2 | 4.8 | 0.00 | 0.00 | 0.00 | 35 | 1057.5 |
| 20260509213601 | 28 | 210 | 1.6 | 3.2 | 0.00 | 0.00 | 0.00 | 36 | 1057.4 |
| 20260509213058 | 28 | 217 | 1.6 | 3.2 | 0.00 | 0.00 | 0.00 | 37 | 1057.7 |
| 20260509212555 | 27 | 238 | 6.4 | 8.0 | 0.00 | 0.00 | 0.00 | 34 | 1057.7 |
| 20260509212052 | 28 | 91 | 0.0 | 0.0 | 0.00 | 0.00 | 0.00 | 35 | 1057.6 |
| 20260509211548 | 28 | 1 | 1.6 | 1.6 | 0.00 | 0.00 | 0.00 | 34 | 1057.5 |
| 20260509211045 | 28 | 279 | 0.0 | 1.6 | 0.00 | 0.00 | 0.00 | 35 | 1057.8 |
| 20260509210542 | 28 | 294 | 3.2 | 3.2 | 0.00 | 0.00 | 0.00 | 36 | 1057.5 |
| 20260509210038 | 28 | 291 | 1.6 | 1.6 | 0.00 | 0.00 | 0.00 | 37 | 1057.6 |
| 20260509205538 | 27 | 31 | 0.0 | 0.0 | 0.00 | 0.00 | 0.00 | 38 | 1057.6 |
| 20260509205033 | 27 | 168 | 8.0 | 9.7 | 0.00 | 0.00 | 0.00 | 35 | 1057.6 |
| 20260509204530 | 28 | 155 | 1.6 | 3.2 | 0.00 | 0.00 | 0.00 | 36 | 1057.7 |
| 20260509204026 | 27 | 257 | 0.0 | 1.6 | 0.00 | 0.00 | 0.00 | 36 | 1057.5 |
| 20260509203522 | 28 | 309 | 4.8 | 4.8 | 0.00 | 0.00 | 0.00 | 37 | 1057.7 |
| 20260509203021 | 27 | 280 | 3.2 | 3.2 | 0.00 | 0.00 | 0.00 | 33 | 1057.9 |
| 20260509202515 | 27 | 234 | 1.6 | 3.2 | 0.00 | 0.00 | 0.00 | 38 | 1057.8 |
| 20260509202011 | 27 | 178 | 4.8 | 4.8 | 0.00 | 0.00 | 0.00 | 36 | 1057.8 |
| 20260509201506 | 26 | 307 | 3.2 | 3.2 | 0.00 | 0.00 | 0.00 | 37 | 1058.0 |
| 20260509201004 | 27 | 300 | 4.8 | 8.0 | 0.00 | 0.00 | 0.00 | 37 | 1058.0 |
| 20260509200458 | 27 | 286 | 1.6 | 3.2 | 0.00 | 0.00 | 0.00 | 37 | 1058.1 |
| 20260509195955 | 27 | 351 | 1.6 | 3.2 | 0.00 | 0.00 | 0.00 | 39 | 1058.3 |
| 20260509195450 | 26 | 308 | 6.4 | 9.7 | 0.00 | 0.00 | 0.00 | 38 | 1058.4 |
| 20260509194950 | 27 | 270 | 6.4 | 8.0 | 0.00 | 0.00 | 0.00 | 38 | 1058.3 |
| 20260509194446 | 27 | 316 | 3.2 | 3.2 | 0.00 | 0.00 | 0.00 | 38 | 1058.4 |
| 20260509193943 | 28 | 318 | 1.6 | 1.6 | 0.00 | 0.00 | 0.00 | 39 | 1058.3 |
| 20260509193443 | 27 | 213 | 4.8 | 8.0 | 0.00 | 0.00 | 0.00 | 41 | 1058.3 |
| 20260509192939 | 27 | 326 | 6.4 | 9.7 | 0.00 | 0.00 | 0.00 | 39 | 1058.5 |
| 20260509192436 | 27 | 263 | 4.8 | 4.8 | 0.00 | 0.00 | 0.00 | 37 | 1058.5 |
| 20260509191931 | 27 | 23 | 0.0 | 1.6 | 0.00 | 0.00 | 0.00 | 39 | 1058.6 |
| 20260509191426 | 26 | 253 | 8.0 | 9.7 | 0.00 | 0.00 | 0.00 | 38 | 1058.5 |
| 20260509190923 | 26 | 336 | 4.8 | 4.8 | 0.00 | 0.00 | 0.00 | 36 | 1058.5 |
| 20260509190420 | 25 | 162 | 6.4 | 9.7 | 0.00 | 0.00 | 0.00 | 36 | 1058.7 |
| 20260509185918 | 26 | 348 | 3.2 | 3.2 | 0.00 | 0.00 | 0.00 | 35 | 1058.6 |
| 20260509185415 | 26 | 178 | 3.2 | 4.8 | 0.00 | 0.00 | 0.00 | 36 | 1058.6 |
| 20260509184911 | 25 | 20 | 1.6 | 1.6 | 0.00 | 0.00 | 0.00 | 43 | 1058.6 |
| 20260509184408 | 26 | 12 | 4.8 | 8.0 | 0.00 | 0.00 | 0.00 | 41 | 1058.7 |
| 20260509183905 | 26 | 355 | 3.2 | 4.8 | 0.00 | 0.00 | 0.00 | 43 | 1058.7 |
| 20260509183359 | 26 | 108 | 4.8 | 4.8 | 0.00 | 0.00 | 0.00 | 39 | 1058.7 |
| 20260509182856 | 27 | 249 | 9.7 | 12.9 | 0.00 | 0.00 | 0.00 | 40 | 1058.8 |
| 20260509182353 | 26 | 42 | 1.6 | 1.6 | 0.00 | 0.00 | 0.00 | 43 | 1058.8 |
| 20260509181851 | 26 | 296 | 3.2 | 3.2 | 0.00 | 0.00 | 0.00 | 39 | 1058.6 |
| 20260509181347 | 26 | 267 | 3.2 | 4.8 | 0.00 | 0.00 | 0.00 | 37 | 1058.7 |
| 20260509180845 | 26 | 44 | 1.6 | 3.2 | 0.00 | 0.00 | 0.00 | 40 | 1058.7 |
| 20260509180340 | 26 | 19 | 3.2 | 4.8 | 0.00 | 0.00 | 0.00 | 36 | 1058.5 |
| 20260509175838 | 26 | 353 | 0.0 | 1.6 | 0.00 | 0.00 | 0.00 | 39 | 1058.6 |
| 20260509175334 | 25 | 69 | 0.0 | 0.0 | 0.00 | 0.00 | 0.00 | 39 | 1058.6 |
| 20260509174830 | 26 | 262 | 1.6 | 1.6 | 0.00 | 0.00 | 0.00 | 45 | 1058.9 |
| 20260509174326 | 25 | 280 | 3.2 | 3.2 | 0.00 | 0.00 | 0.00 | 48 | 1058.8 |
| 20260509173822 | 25 | 313 | 3.2 | 4.8 | 0.00 | 0.00 | 0.00 | 47 | 1058.7 |
| 20260509173317 | 24 | 88 | 0.0 | 1.6 | 0.00 | 0.00 | 0.00 | 51 | 1058.9 |
| 20260509172814 | 25 | 99 | 1.6 | 1.6 | 0.00 | 0.00 | 0.00 | 50 | 1059.2 |
| 20260509172311 | 25 | 250 | 3.2 | 3.2 | 0.00 | 0.00 | 0.00 | 51 | 1059.2 |
| 20260509171806 | 24 | 168 | 1.6 | 3.2 | 0.00 | 0.00 | 0.00 | 51 | 1059.2 |
| 20260509171302 | 24 | 351 | 3.2 | 3.2 | 0.00 | 0.00 | 0.00 | 52 | 1059.0 |
| 20260509170759 | 24 | 145 | 1.6 | 3.2 | 0.00 | 0.00 | 0.00 | 54 | 1059.3 |
| 20260509170255 | 24 | 147 | 3.2 | 3.2 | 0.00 | 0.00 | 0.00 | 50 | 1059.0 |
| 20260509165754 | 24 | 280 | 3.2 | 3.2 | 0.00 | 0.00 | 0.00 | 51 | 1059.3 |
| 20260509165249 | 23 | 301 | 3.2 | 4.8 | 0.00 | 0.00 | 0.00 | 49 | 1059.2 |
| 20260509164746 | 23 | 100 | 0.0 | 1.6 | 0.00 | 0.00 | 0.00 | 53 | 1059.3 |
| 20260509164242 | 23 | 260 | 4.8 | 4.8 | 0.00 | 0.00 | 0.00 | 49 | 1059.2 |
| 20260509163739 | 23 | 143 | 1.6 | 3.2 | 0.00 | 0.00 | 0.00 | 58 | 1059.4 |
| 20260509163235 | 23 | 143 | 1.6 | 3.2 | 0.00 | 0.00 | 0.00 | 59 | 1059.3 |
| 20260509162733 | 22 | 140 | 1.6 | 3.2 | 0.00 | 0.00 | 0.00 | 60 | 1059.3 |
| 20260509162228 | 22 | 163 | 4.8 | 4.8 | 0.00 | 0.00 | 0.00 | 60 | 1059.0 |
| 20260509161724 | 23 | 7 | 0.0 | 1.6 | 0.00 | 0.00 | 0.00 | 60 | 1059.2 |
| 20260509161220 | 23 | 172 | 1.6 | 3.2 | 0.00 | 0.00 | 0.00 | 62 | 1059.4 |
| 20260509160715 | 22 | 346 | 1.6 | 3.2 | 0.00 | 0.00 | 0.00 | 65 | 1059.2 |
| 20260509160212 | 22 | 255 | 0.0 | 1.6 | 0.00 | 0.00 | 0.00 | 66 | 1059.5 |
| 20260509155707 | 21 | 164 | 4.8 | 4.8 | 0.00 | 0.00 | 0.00 | 66 | 1059.2 |
| 20260509155204 | 21 | 161 | 0.0 | 0.0 | 0.00 | 0.00 | 0.00 | 68 | 1059.2 |
| 20260509154700 | 21 | 256 | 1.6 | 1.6 | 0.00 | 0.00 | 0.00 | 69 | 1059.3 |
| 20260509154157 | 22 | 45 | 0.0 | 1.6 | 0.00 | 0.00 | 0.00 | 67 | 1059.3 |
| 20260509153654 | 21 | 279 | 0.0 | 0.0 | 0.00 | 0.00 | 0.00 | 67 | 1059.4 |
| 20260509153150 | 21 | 307 | 4.8 | 4.8 | 0.00 | 0.00 | 0.00 | 65 | 1059.0 |
| 20260509152646 | 21 | 285 | 0.0 | 1.6 | 0.00 | 0.00 | 0.00 | 68 | 1059.0 |
| 20260509152144 | 21 | 236 | 0.0 | 1.6 | 0.00 | 0.00 | 0.00 | 69 | 1059.0 |
| 20260509151640 | 20 | 43 | 0.0 | 0.0 | 0.00 | 0.00 | 0.00 | 70 | 1059.0 |
| 20260509151137 | 20 | 263 | 1.6 | 3.2 | 0.00 | 0.00 | 0.00 | 72 | 1058.9 |
| 20260509150635 | 20 | 313 | 1.6 | 1.6 | 0.00 | 0.00 | 0.00 | 72 | 1058.9 |
| 20260509150133 | 20 | 104 | 0.0 | 0.0 | 0.00 | 0.00 | 0.00 | 72 | 1058.9 |
| 20260509145629 | 19 | 11 | 0.0 | 0.0 | 0.00 | 0.00 | 0.00 | 73 | 1058.9 |
| 20260509145124 | 19 | 321 | 1.6 | 1.6 | 0.00 | 0.00 | 0.00 | 77 | 1058.9 |
| 20260509144621 | 19 | 289 | 4.8 | 4.8 | 0.00 | 0.00 | 0.00 | 74 | 1058.9 |
| 20260509144118 | 18 | 190 | 0.0 | 1.6 | 0.00 | 0.00 | 0.00 | 77 | 1059.3 |
| 20260509143615 | 18 | 259 | 1.6 | 3.2 | 0.00 | 0.00 | 0.00 | 78 | 1058.9 |
| 20260509143113 | 18 | 317 | 4.8 | 4.8 | 0.00 | 0.00 | 0.00 | 79 | 1058.8 |
| 20260509142608 | 18 | 275 | 4.8 | 4.8 | 0.00 | 0.00 | 0.00 | 79 | 1059.2 |
| 20260509142105 | 17 | 278 | 3.2 | 3.2 | 0.00 | 0.00 | 0.00 | 81 | 1058.8 |
| 20260509141601 | 17 | 252 | 4.8 | 4.8 | 0.00 | 0.00 | 0.00 | 82 | 1058.9 |
| 20260509141057 | 17 | 279 | 1.6 | 1.6 | 0.00 | 0.00 | 0.00 | 81 | 1058.9 |
| 20260509140555 | 17 | 318 | 3.2 | 3.2 | 0.00 | 0.00 | 0.00 | 82 | 1058.7 |
| 20260509140052 | 16 | 301 | 3.2 | 3.2 | 0.00 | 0.00 | 0.00 | 84 | 1058.8 |
| 20260509135549 | 17 | 329 | 1.6 | 1.6 | 0.00 | 0.00 | 0.00 | 84 | 1058.8 |
| 20260509135047 | 16 | 311 | 1.6 | 1.6 | 0.00 | 0.00 | 0.00 | 84 | 1058.7 |
| 20260509134544 | 16 | 356 | 1.6 | 1.6 | 0.00 | 0.00 | 0.00 | 85 | 1058.6 |
| 20260509134041 | 16 | 262 | 1.6 | 3.2 | 0.00 | 0.00 | 0.00 | 85 | 1058.7 |
| 20260509133538 | 16 | 309 | 0.0 | 1.6 | 0.00 | 0.00 | 0.00 | 87 | 1058.9 |
| 20260509133035 | 16 | 246 | 0.0 | 0.0 | 0.00 | 0.00 | 0.00 | 87 | 1058.6 |
| 20260509132533 | 16 | 245 | 3.2 | 4.8 | 0.00 | 0.00 | 0.00 | 87 | 1058.6 |